• In United Kingdom
  • List of Countries
  • For 7 days
  • Water Temperature
  • Satellite Maps
  • Weather Map
  • Weather Widgets
  • user-avatar
    Login

    Hourly Weather Newcastle

    Today, 25 June, Monday

    Time Temperature Precipitation Wind Pressure Humidity
    00:00 +9°C° 0 mm 3 mps 770 mmHg 92%
    01:00 +8°C° 0 mm 3 mps 770 mmHg 93%
    02:00 +8°C° 0 mm 3 mps 770 mmHg 93%
    03:00 +8°C° 0 mm 3 mps 770 mmHg 94%
    04:00 +7°C° 0 mm 2 mps 770 mmHg 95%
    05:00 +7°C° 0 mm 3 mps 770 mmHg 95%
    06:00 +7°C° 0 mm 3 mps 771 mmHg 95%
    07:00 +7°C° 0 mm 3 mps 771 mmHg 95%
    08:00 +9°C° 0 mm 3 mps 771 mmHg 85%
    09:00 +12°C° 0 mm 3 mps 771 mmHg 75%
    10:00 +14°C° 0 mm 3 mps 771 mmHg 66%
    11:00 +16°C° 0 mm 3 mps 771 mmHg 60%
    12:00 +17°C° 0 mm 3 mps 771 mmHg 55%
    13:00 +18°C° 0 mm 3 mps 771 mmHg 49%
    14:00 +18°C° 0 mm 3 mps 770 mmHg 53%
    15:00 +17°C° 0 mm 3 mps 770 mmHg 57%
    16:00 +16°C° 0 mm 3 mps 770 mmHg 60%
    17:00 +14°C° 0 mm 2 mps 771 mmHg 67%
    18:00 +12°C° 0 mm 2 mps 771 mmHg 74%
    19:00 +9°C° 0 mm 2 mps 772 mmHg 80%
    20:00 +9°C° 0 mm 2 mps 772 mmHg 82%
    21:00 +9°C° 0 mm 2 mps 772 mmHg 83%
    22:00 +8°C° 0 mm 2 mps 773 mmHg 84%
    23:00 +8°C° 0 mm 2 mps 773 mmHg 87%

    Tomorrow, 26 June, Tuesday

    Time Temperature Precipitation Wind Pressure Humidity
    00:00 +8°C° 0 mm 2 mps 773 mmHg 89%
    01:00 +7°C° 0 mm 2 mps 773 mmHg 91%
    02:00 +7°C° 0 mm 2 mps 773 mmHg 92%
    03:00 +7°C° 0 mm 2 mps 773 mmHg 93%
    04:00 +7°C° 0 mm 2 mps 773 mmHg 94%
    05:00 +6°C° 0 mm 2 mps 773 mmHg 95%
    06:00 +6°C° 0 mm 2 mps 773 mmHg 95%
    07:00 +6°C° 0 mm 2 mps 774 mmHg 96%
    08:00 +9°C° 0 mm 2 mps 774 mmHg 86%
    09:00 +13°C° 0 mm 2 mps 774 mmHg 77%
    10:00 +15°C° 0 mm 2 mps 774 mmHg 67%
    11:00 +16°C° 0 mm 2 mps 774 mmHg 64%
    12:00 +17°C° 0 mm 2 mps 773 mmHg 60%
    13:00 +19°C° 0 mm 3 mps 772 mmHg 57%
    14:00 +18°C° 0 mm 3 mps 772 mmHg 62%
    15:00 +17°C° 0 mm 3 mps 772 mmHg 66%
    16:00 +17°C° 0 mm 2 mps 772 mmHg 71%
    17:00 +15°C° 0 mm 2 mps 773 mmHg 79%
    18:00 +14°C° 0 mm 2 mps 773 mmHg 88%
    19:00 +12°C° 0 mm 1 mps 773 mmHg 96%
    20:00 +12°C° 0 mm 1 mps 774 mmHg 97%
    21:00 +11°C° 0 mm 1 mps 774 mmHg 97%
    22:00 +11°C° 0 mm 1 mps 774 mmHg 98%
    23:00 +11°C° 0 mm 1 mps 774 mmHg 98%

    Day after tomorrow, 27 June, Wednesday

    Time Temperature Precipitation Wind Pressure Humidity
    00:00 +11°C° 0 mm 1 mps 773 mmHg 98%
    01:00 +10°C° 0 mm 2 mps 773 mmHg 98%
    02:00 +11°C° 0 mm 1 mps 773 mmHg 98%
    03:00 +10°C° 0 mm 1 mps 773 mmHg 98%
    04:00 +10°C° 0 mm 1 mps 773 mmHg 98%
    05:00 +10°C° 0 mm 1 mps 773 mmHg 98%
    06:00 +10°C° 0 mm 1 mps 773 mmHg 98%
    07:00 +10°C° 0 mm 1 mps 773 mmHg 98%
    08:00 +12°C° 0.2 mm 1 mps 773 mmHg 94%
    09:00 +14°C° 0.2 mm 2 mps 773 mmHg 89%
    10:00 +16°C° 0.2 mm 2 mps 773 mmHg 85%
    11:00 +17°C° 0.6 mm 2 mps 772 mmHg 78%
    12:00 +18°C° 0.6 mm 3 mps 771 mmHg 71%
    13:00 +19°C° 0.6 mm 3 mps 770 mmHg 64%
    14:00 +19°C° 0.5 mm 3 mps 770 mmHg 70%
    15:00 +18°C° 0.5 mm 3 mps 770 mmHg 76%
    16:00 +17°C° 0.5 mm 3 mps 770 mmHg 82%
    17:00 +15°C° 0.3 mm 4 mps 770 mmHg 85%
    18:00 +14°C° 0.3 mm 4 mps 770 mmHg 89%
    19:00 +13°C° 0.3 mm 4 mps 770 mmHg 93%
    20:00 +13°C° 0 mm 4 mps 770 mmHg 93%
    21:00 +12°C° 0 mm 4 mps 770 mmHg 93%
    22:00 +12°C° 0 mm 4 mps 770 mmHg 92%
    23:00 +12°C° 0.1 mm 4 mps 770 mmHg 93%

    28 June, Thursday

    Time Temperature Precipitation Wind Pressure Humidity
    00:00 +12°C° 0.1 mm 3 mps 769 mmHg 94%
    01:00 +12°C° 0.1 mm 3 mps 769 mmHg 94%
    02:00 +12°C° 0.1 mm 3 mps 769 mmHg 95%
    03:00 +12°C° 0.1 mm 3 mps 769 mmHg 95%
    04:00 +12°C° 0.1 mm 3 mps 768 mmHg 95%
    05:00 +12°C° 0.2 mm 3 mps 768 mmHg 95%
    06:00 +11°C° 0.2 mm 3 mps 768 mmHg 95%
    07:00 +11°C° 0.2 mm 4 mps 768 mmHg 96%
    08:00 +12°C° 0.1 mm 3 mps 768 mmHg 93%
    09:00 +14°C° 0.1 mm 2 mps 768 mmHg 90%
    10:00 +15°C° 0.1 mm 2 mps 768 mmHg 87%
    11:00 +17°C° 0 mm 2 mps 767 mmHg 80%
    12:00 +18°C° 0 mm 2 mps 766 mmHg 73%
    13:00 +19°C° 0 mm 2 mps 766 mmHg 66%
    14:00 +19°C° 0 mm 2 mps 765 mmHg 69%
    15:00 +20°C° 0 mm 1 mps 765 mmHg 71%
    16:00 +19°C° 0 mm 1 mps 765 mmHg 74%
    17:00 +18°C° 0 mm 1 mps 765 mmHg 78%
    18:00 +16°C° 0 mm 1 mps 765 mmHg 83%
    19:00 +14°C° 0 mm 2 mps 766 mmHg 88%
    20:00 +14°C° 0 mm 2 mps 766 mmHg 88%
    21:00 +14°C° 0 mm 2 mps 766 mmHg 88%
    22:00 +12°C° 0 mm 3 mps 766 mmHg 88%
    23:00 +12°C° 0 mm 3 mps 766 mmHg 90%

    29 June, Friday

    Time Temperature Precipitation Wind Pressure Humidity
    00:00 +12°C° 0 mm 3 mps 766 mmHg 91%
    01:00 +11°C° 0 mm 3 mps 766 mmHg 92%
    02:00 +11°C° 0 mm 3 mps 765 mmHg 93%
    03:00 +10°C° 0 mm 3 mps 765 mmHg 94%
    04:00 +10°C° 0 mm 3 mps 765 mmHg 95%
    05:00 +10°C° 0 mm 4 mps 766 mmHg 94%
    06:00 +8°C° 0 mm 4 mps 766 mmHg 94%
    07:00 +8°C° 0 mm 4 mps 767 mmHg 94%
    08:00 +11°C° 0 mm 4 mps 767 mmHg 85%
    09:00 +13°C° 0 mm 4 mps 767 mmHg 76%
    10:00 +15°C° 0 mm 4 mps 767 mmHg 66%
    11:00 +18°C° 0 mm 4 mps 766 mmHg 61%
    12:00 +19°C° 0 mm 4 mps 766 mmHg 56%
    13:00 +20°C° 0 mm 4 mps 765 mmHg 50%
    14:00 +20°C° 0 mm 4 mps 765 mmHg 54%
    15:00 +19°C° 0 mm 3 mps 765 mmHg 58%
    16:00 +19°C° 0 mm 3 mps 765 mmHg 62%
    17:00 +17°C° 0 mm 3 mps 765 mmHg 67%
    18:00 +14°C° 0 mm 3 mps 766 mmHg 73%
    19:00 +13°C° 0 mm 3 mps 766 mmHg 78%
    20:00 +12°C° 0 mm 3 mps 766 mmHg 79%
    21:00 +11°C° 0 mm 3 mps 767 mmHg 81%
    22:00 +10°C° 0 mm 3 mps 767 mmHg 82%
    23:00 +10°C° 0 mm 3 mps 767 mmHg 82%

    30 June, Saturday

    Time Temperature Precipitation Wind Pressure Humidity
    00:00 +10°C° 0 mm 3 mps 767 mmHg 81%
    01:00 +9°C° 0 mm 3 mps 767 mmHg 81%
    02:00 +8°C° 0 mm 4 mps 767 mmHg 81%
    03:00 +8°C° 0 mm 4 mps 767 mmHg 80%
    04:00 +7°C° 0 mm 4 mps 767 mmHg 80%
    05:00 +7°C° 0 mm 4 mps 767 mmHg 80%
    06:00 +8°C° 0 mm 3 mps 768 mmHg 80%
    07:00 +7°C° 0 mm 3 mps 769 mmHg 81%
    08:00 +10°C° 0 mm 3 mps 769 mmHg 71%
    09:00 +12°C° 0 mm 3 mps 769 mmHg 62%
    10:00 +14°C° 0 mm 3 mps 769 mmHg 53%
    11:00 +16°C° 0 mm 2 mps 768 mmHg 48%
    12:00 +18°C° 0 mm 2 mps 768 mmHg 43%
    13:00 +19°C° 0 mm 2 mps 768 mmHg 38%
    14:00 +18°C° 0 mm 2 mps 768 mmHg 43%
    15:00 +19°C° 0 mm 1 mps 768 mmHg 47%
    16:00 +18°C° 0 mm 1 mps 768 mmHg 51%
    17:00 +15°C° 0 mm 1 mps 768 mmHg 56%
    18:00 +13°C° 0 mm 1 mps 769 mmHg 61%
    19:00 +10°C° 0 mm 2 mps 769 mmHg 66%
    20:00 +11°C° 0 mm 1 mps 770 mmHg 68%
    21:00 +11°C° 0 mm 1 mps 770 mmHg 69%
    22:00 +10°C° 0 mm 1 mps 770 mmHg 70%
    23:00 +10°C° 0 mm 1 mps 770 mmHg 70%
    Show more